Weather in Gurlen

Uzbekistan     41°50′22″N   60°23′38″E
temp.,
°C
wind,
m/s
gust,
m/s
humid.,
%
clouds,
%
prec.,
mm/h
press.,
hPa
HPBL,
m
7 march, sun
sun723:00+5ene234467 0.0 102135
02:00+4ese23500 0.0 102127
05:00+3se34530 0.0 102030
08:00+3se345411 0.0 102053
11:00+9sse56355 0.0 1019656
14:00+12s56300 0.0 10161252
17:00+13s57310 0.0 10141273
20:00+10s354386 0.0 1015149
8 march, mon
mon823:00+10s474593 0.0 1015183
02:00+8ssw474965 0.0 1015125
05:00+6nw486534 0.0 1017206
08:00+3nne6107528 0.0 1020429
11:00+6nne665424 0.0 1023641
14:00+9ne43440 0.0 1022903
17:00+10ne44380 0.0 1020918
20:00+7ne57450 0.0 1020334
9 march, tue
tue923:00+5ne59410 0.0 1019273
02:00+4ene59460 0.0 1017226
05:00+3ene486232 0.0 1014157
08:00+3ene467490 0.0 1013142
11:00+10ese345190 0.0 1012320
14:00+16s3430100 0.0 1010772
17:00+17sw4527100 0.0 10081297
20:00+14w4737100 0.0 1009178
10 march, wed
wed1023:00+11w5104579 0.0 1011326
02:00+8wnw695664 0.0 1012249
05:00+5nw698032 0.0 1014541
08:00+4wnw597431 0.0 1018692
11:00+6nw556240 0.0 1021932
14:00+8nnw344380 0.0 10221111
17:00+10n332662 0.0 10211448
20:00+7e333332 0.0 102242
11 march, thu
thu1123:00+5se464426 0.0 1023134
02:00+4se344626 0.0 102166
05:00+3se445212 0.0 102085
08:00+3ese485721 0.0 1019188
11:00+9se673761 0.0 1019788
14:00+12se562864 0.0 10161365
17:00+13se443475 0.0 10131510
20:00+10ene6103682 0.0 1012339